SAS41K ESSA-EKCH

Flight info

Callsign SAS41K
Flight time 0h 54m
Altitude 38000
Route PETEV N872 ERNOV
Aircraft A319/M-SDE3FGIJ1RWXY/LB1

Departure

Time 2026-04-24 13:54
Airport Stockholm-Arlanda Airport (ESSA)

Arrival

Time 2026-04-24 14:48
Airport Copenhagen Kastrup Airport (EKCH)
Time Latitude Longitude Altitude Speed Heading
2026-04-24 13:35 59.65135 17.92809 138 ft 0 kts 191°
2026-04-24 13:44 59.65157 17.92817 138 ft 4 kts 191°
2026-04-24 13:44 59.65180 17.92826 138 ft 4 kts 197°
2026-04-24 13:44 59.65198 17.92850 138 ft 4 kts 263°
2026-04-24 13:45 59.65192 17.92897 138 ft 4 kts 303°
2026-04-24 13:45 59.65188 17.92910 138 ft 0 kts 308°
2026-04-24 13:48 59.65190 17.92904 138 ft 3 kts 308°
2026-04-24 13:48 59.65213 17.92850 138 ft 7 kts 315°
2026-04-24 13:49 59.65282 17.92774 138 ft 15 kts 333°
2026-04-24 13:49 59.65344 17.92713 138 ft 8 kts 333°
2026-04-24 13:49 59.65418 17.92639 138 ft 16 kts 333°
2026-04-24 13:49 59.65528 17.92634 138 ft 19 kts 57°
2026-04-24 13:50 59.65565 17.92894 138 ft 14 kts 76°
2026-04-24 13:50 59.65591 17.93102 138 ft 17 kts 76°
2026-04-24 13:50 59.65622 17.93343 138 ft 20 kts 76°
2026-04-24 13:50 59.65657 17.93619 138 ft 22 kts 76°
2026-04-24 13:51 59.65695 17.93916 138 ft 23 kts 76°
2026-04-24 13:51 59.65735 17.94235 138 ft 25 kts 76°
2026-04-24 13:51 59.65780 17.94583 138 ft 27 kts 75°
2026-04-24 13:51 59.65826 17.94933 138 ft 21 kts 76°
2026-04-24 13:52 59.65748 17.95141 138 ft 23 kts 164°
2026-04-24 13:52 59.65588 17.95228 138 ft 25 kts 165°
2026-04-24 13:52 59.65414 17.95322 138 ft 27 kts 165°
2026-04-24 13:52 59.65224 17.95420 138 ft 29 kts 165°
2026-04-24 13:53 59.65082 17.95492 138 ft 20 kts 165°
2026-04-24 13:53 59.64981 17.95553 138 ft 16 kts 142°
2026-04-24 13:53 59.64933 17.95771 139 ft 19 kts 114°
2026-04-24 13:53 59.64822 17.95866 142 ft 25 kts 187°
2026-04-24 13:54 59.64436 17.95727 144 ft 86 kts 190°
2026-04-24 13:54 59.63669 17.95450 146 ft 140 kts 190°
2026-04-24 13:54 59.62656 17.95096 622 ft 146 kts 193°
2026-04-24 13:54 59.61647 17.94751 1228 ft 149 kts 193°
2026-04-24 13:55 59.60580 17.94198 1565 ft 170 kts 199°
2026-04-24 13:55 59.59370 17.93445 1955 ft 195 kts 199°
2026-04-24 13:55 59.58031 17.92423 2427 ft 218 kts 214°
2026-04-24 13:55 59.56885 17.90313 3016 ft 237 kts 239°
2026-04-24 13:56 59.56019 17.87381 3697 ft 255 kts 244°
2026-04-24 13:56 59.55124 17.84304 4751 ft 261 kts 242°
2026-04-24 13:56 59.54204 17.81186 5811 ft 266 kts 243°
2026-04-24 13:56 59.53259 17.78000 6756 ft 273 kts 243°
2026-04-24 13:57 59.52287 17.74744 7706 ft 278 kts 243°
2026-04-24 13:57 59.51303 17.71455 8717 ft 280 kts 243°
2026-04-24 13:57 59.50269 17.68170 9725 ft 285 kts 236°
2026-04-24 13:57 59.48850 17.65303 10362 ft 304 kts 225°
2026-04-24 13:58 59.47223 17.62403 10654 ft 328 kts 225°
2026-04-24 13:58 59.45454 17.59320 10879 ft 352 kts 224°
2026-04-24 13:58 59.43554 17.56045 11028 ft 375 kts 224°
2026-04-24 13:58 59.41535 17.52585 11215 ft 393 kts 224°
2026-04-24 13:59 59.39452 17.49029 11773 ft 400 kts 224°
2026-04-24 13:59 59.37338 17.45428 12446 ft 404 kts 224°
2026-04-24 13:59 59.35207 17.41794 13119 ft 408 kts 224°
2026-04-24 13:59 59.33057 17.38123 13777 ft 411 kts 224°
2026-04-24 14:00 59.30894 17.34427 14351 ft 415 kts 224°
2026-04-24 14:00 59.28712 17.30723 14939 ft 416 kts 224°
2026-04-24 14:00 59.26521 17.27023 15713 ft 410 kts 224°
2026-04-24 14:00 59.24403 17.23445 16958 ft 398 kts 224°
2026-04-24 14:01 59.22319 17.19917 17806 ft 397 kts 224°
2026-04-24 14:01 59.20229 17.16372 18452 ft 399 kts 224°
2026-04-24 14:01 59.18128 17.12809 19017 ft 402 kts 224°
2026-04-24 14:01 59.16009 17.09220 19569 ft 405 kts 224°
2026-04-24 14:02 59.13908 17.05662 20107 ft 407 kts 224°
2026-04-24 14:02 59.11757 17.02031 20635 ft 410 kts 224°
2026-04-24 14:02 59.09592 16.98389 21150 ft 413 kts 224°
2026-04-24 14:02 59.07408 16.94719 21647 ft 416 kts 224°
2026-04-24 14:03 59.05215 16.91044 22138 ft 417 kts 224°
2026-04-24 14:03 59.03015 16.87370 22688 ft 418 kts 224°
2026-04-24 14:03 59.00802 16.83684 23177 ft 420 kts 224°
2026-04-24 14:03 58.98579 16.79986 23619 ft 422 kts 224°
2026-04-24 14:04 58.96341 16.76270 24006 ft 424 kts 224°
2026-04-24 14:04 58.94092 16.72544 24393 ft 427 kts 224°
2026-04-24 14:04 58.91828 16.68798 24727 ft 430 kts 224°
2026-04-24 14:04 58.89545 16.65018 25088 ft 433 kts 224°
2026-04-24 14:05 58.87253 16.61226 25463 ft 435 kts 224°
2026-04-24 14:05 58.84945 16.57423 25829 ft 437 kts 224°
2026-04-24 14:05 58.82628 16.53614 26188 ft 439 kts 224°
2026-04-24 14:05 58.80298 16.49790 26575 ft 439 kts 224°
2026-04-24 14:06 58.77969 16.45978 26956 ft 440 kts 224°
2026-04-24 14:06 58.75628 16.42155 27304 ft 442 kts 224°
2026-04-24 14:06 58.73279 16.38319 27631 ft 444 kts 224°
2026-04-24 14:06 58.70921 16.34472 27962 ft 446 kts 224°
2026-04-24 14:07 58.68549 16.30609 28267 ft 448 kts 224°
2026-04-24 14:07 58.66169 16.26740 28576 ft 449 kts 224°
2026-04-24 14:07 58.63776 16.22858 28910 ft 450 kts 224°
2026-04-24 14:07 58.61387 16.18992 29366 ft 449 kts 224°
2026-04-24 14:08 58.58999 16.15139 29838 ft 448 kts 224°
2026-04-24 14:08 58.56620 16.11306 30258 ft 446 kts 225°
2026-04-24 14:08 58.54249 16.07490 30640 ft 445 kts 225°
2026-04-24 14:08 58.51882 16.03686 30988 ft 445 kts 225°
2026-04-24 14:09 58.49514 15.99883 31331 ft 445 kts 225°
2026-04-24 14:09 58.47141 15.96084 31679 ft 445 kts 224°
2026-04-24 14:09 58.44763 15.92294 31989 ft 445 kts 220°
2026-04-24 14:09 58.42379 15.88503 32204 ft 447 kts 224°
2026-04-24 14:10 58.40765 15.85936 32449 ft 447 kts 224°
2026-04-24 14:10 58.37606 15.80911 32957 ft 447 kts 224°
2026-04-24 14:10 58.35217 15.77118 33327 ft 447 kts 224°
2026-04-24 14:10 58.32829 15.73335 33645 ft 447 kts 225°
2026-04-24 14:11 58.30439 15.69561 34011 ft 447 kts 225°
2026-04-24 14:11 58.28047 15.65794 34319 ft 447 kts 225°
2026-04-24 14:11 58.23259 15.58249 34914 ft 448 kts 225°
2026-04-24 14:12 58.20858 15.54478 35221 ft 448 kts 225°
2026-04-24 14:12 58.18453 15.50708 35528 ft 449 kts 225°
2026-04-24 14:12 58.16046 15.46947 35902 ft 446 kts 224°
2026-04-24 14:12 58.13676 15.43264 36581 ft 438 kts 224°
2026-04-24 14:13 58.11325 15.39615 36943 ft 437 kts 224°
2026-04-24 14:13 58.08973 15.35963 37178 ft 438 kts 224°
2026-04-24 14:13 58.06615 15.32300 37418 ft 440 kts 224°
2026-04-24 14:13 58.04247 15.28629 37624 ft 442 kts 224°
2026-04-24 14:14 58.01865 15.24948 37828 ft 444 kts 224°
2026-04-24 14:14 57.99469 15.21253 37956 ft 447 kts 224°
2026-04-24 14:14 57.94636 15.13811 37969 ft 450 kts 224°
2026-04-24 14:15 57.89785 15.06367 37972 ft 450 kts 224°
2026-04-24 14:15 57.84928 14.98950 37972 ft 450 kts 224°
2026-04-24 14:16 57.80063 14.91541 37973 ft 450 kts 224°
2026-04-24 14:17 57.72755 14.80470 37974 ft 450 kts 223°
2026-04-24 14:17 57.65441 14.69442 37973 ft 450 kts 223°
2026-04-24 14:18 57.60562 14.62107 37947 ft 450 kts 223°
2026-04-24 14:18 57.55678 14.54794 37949 ft 451 kts 223°
2026-04-24 14:19 57.50811 14.47539 37954 ft 452 kts 223°
2026-04-24 14:19 57.45891 14.40243 37963 ft 453 kts 223°
2026-04-24 14:20 57.40959 14.32959 37967 ft 453 kts 223°
2026-04-24 14:20 57.36828 14.26858 37949 ft 453 kts 223°
2026-04-24 14:21 57.31905 14.19598 37974 ft 452 kts 223°
2026-04-24 14:21 57.26975 14.12366 37979 ft 452 kts 223°
2026-04-24 14:22 57.22070 14.05224 37979 ft 452 kts 223°
2026-04-24 14:23 57.14672 13.94448 37936 ft 452 kts 223°
2026-04-24 14:23 57.09736 13.87305 37235 ft 451 kts 221°
2026-04-24 14:23 57.07268 13.83754 37968 ft 450 kts 223°
2026-04-24 14:24 57.04809 13.80214 37717 ft 449 kts 223°
2026-04-24 14:24 57.02357 13.76686 37446 ft 447 kts 224°
2026-04-24 14:24 56.99910 13.73165 37177 ft 446 kts 224°
2026-04-24 14:24 56.97466 13.69654 36894 ft 445 kts 224°
2026-04-24 14:25 56.95024 13.66164 36223 ft 446 kts 224°
2026-04-24 14:25 56.92565 13.62651 35469 ft 448 kts 225°
2026-04-24 14:25 56.90110 13.59142 34786 ft 447 kts 226°
2026-04-24 14:25 56.87670 13.55673 34104 ft 442 kts 226°
2026-04-24 14:26 56.85235 13.52218 32872 ft 446 kts 226°
2026-04-24 14:26 56.82780 13.48733 31928 ft 448 kts 226°
2026-04-24 14:26 56.80312 13.45231 30963 ft 450 kts 226°
2026-04-24 14:26 56.77835 13.41728 29975 ft 452 kts 226°
2026-04-24 14:27 56.75339 13.38199 28760 ft 455 kts 226°
2026-04-24 14:27 56.72832 13.34669 27615 ft 456 kts 226°
2026-04-24 14:27 56.70316 13.31133 26408 ft 458 kts 225°
2026-04-24 14:27 56.67789 13.27584 25199 ft 460 kts 225°
2026-04-24 14:28 56.65248 13.24023 24000 ft 462 kts 225°
2026-04-24 14:28 56.62700 13.20457 22724 ft 462 kts 224°
2026-04-24 14:28 56.60156 13.16908 21617 ft 458 kts 224°
2026-04-24 14:28 56.57645 13.13422 20670 ft 451 kts 224°
2026-04-24 14:29 56.55173 13.09995 19731 ft 445 kts 223°
2026-04-24 14:29 56.52740 13.06623 19239 ft 436 kts 223°
2026-04-24 14:29 56.50374 13.03350 17994 ft 424 kts 223°
2026-04-24 14:29 56.48026 13.00088 16795 ft 424 kts 223°
2026-04-24 14:30 56.45710 12.96870 15930 ft 417 kts 223°
2026-04-24 14:30 56.43427 12.93702 15015 ft 412 kts 223°
2026-04-24 14:30 56.41159 12.90569 14190 ft 408 kts 222°
2026-04-24 14:30 56.38910 12.87473 13326 ft 406 kts 222°
2026-04-24 14:31 56.36679 12.84408 12538 ft 400 kts 222°
2026-04-24 14:31 56.34535 12.81474 12145 ft 379 kts 222°
2026-04-24 14:31 56.32489 12.78699 11945 ft 350 kts 222°
2026-04-24 14:31 56.30595 12.76122 11816 ft 333 kts 223°
2026-04-24 14:32 56.28792 12.73659 11687 ft 318 kts 223°
2026-04-24 14:32 56.27067 12.71301 11547 ft 306 kts 223°
2026-04-24 14:32 56.25416 12.69040 11303 ft 299 kts 223°
2026-04-24 14:32 56.23749 12.66756 11070 ft 296 kts 223°
2026-04-24 14:33 56.22137 12.64544 10826 ft 295 kts 223°
2026-04-24 14:33 56.20508 12.62310 10583 ft 294 kts 223°
2026-04-24 14:33 56.18877 12.60095 10316 ft 295 kts 221°
2026-04-24 14:33 56.17051 12.58346 10080 ft 302 kts 205°
2026-04-24 14:34 56.14987 12.57495 9916 ft 308 kts 189°
2026-04-24 14:34 56.12835 12.57443 9786 ft 310 kts 183°
2026-04-24 14:34 56.10680 12.57468 9475 ft 309 kts 181°
2026-04-24 14:34 56.08547 12.57489 9521 ft 306 kts 183°
2026-04-24 14:35 56.06408 12.57502 9386 ft 308 kts 183°
2026-04-24 14:35 56.04268 12.57517 9259 ft 308 kts 183°
2026-04-24 14:35 56.02127 12.57536 9140 ft 307 kts 183°
2026-04-24 14:35 55.99994 12.57554 9008 ft 306 kts 183°
2026-04-24 14:36 55.97868 12.57571 8881 ft 305 kts 183°
2026-04-24 14:36 55.95747 12.57591 8764 ft 305 kts 183°
2026-04-24 14:36 55.93629 12.57613 8663 ft 304 kts 183°
2026-04-24 14:36 55.91516 12.57634 8469 ft 303 kts 183°
2026-04-24 14:37 55.89405 12.57653 8270 ft 303 kts 183°
2026-04-24 14:37 55.87316 12.57475 8067 ft 299 kts 193°
2026-04-24 14:37 55.85332 12.56515 7868 ft 293 kts 205°
2026-04-24 14:37 55.83422 12.55258 7669 ft 292 kts 205°
2026-04-24 14:38 55.81516 12.54017 7468 ft 292 kts 204°
2026-04-24 14:38 55.79609 12.52784 7270 ft 292 kts 204°
2026-04-24 14:38 55.77700 12.51556 7070 ft 291 kts 204°
2026-04-24 14:38 55.75801 12.50336 6869 ft 290 kts 204°
2026-04-24 14:39 55.73907 12.49118 6671 ft 289 kts 204°
2026-04-24 14:39 55.72015 12.47900 6468 ft 289 kts 204°
2026-04-24 14:39 55.70130 12.46684 6257 ft 288 kts 204°
2026-04-24 14:39 55.68245 12.45471 6055 ft 288 kts 204°
2026-04-24 14:40 55.66368 12.44265 5840 ft 286 kts 204°
2026-04-24 14:40 55.64500 12.43067 5647 ft 285 kts 203°
2026-04-24 14:40 55.62633 12.41874 5444 ft 285 kts 203°
2026-04-24 14:40 55.60784 12.40632 5195 ft 283 kts 209°
2026-04-24 14:41 55.59161 12.38835 5012 ft 277 kts 224°
2026-04-24 14:41 55.57719 12.36606 4849 ft 275 kts 226°
2026-04-24 14:41 55.56278 12.34383 4689 ft 274 kts 225°
2026-04-24 14:41 55.54841 12.32187 4531 ft 273 kts 225°
2026-04-24 14:42 55.53406 12.30002 4318 ft 270 kts 225°
2026-04-24 14:42 55.51845 12.28259 4183 ft 268 kts 200°
2026-04-24 14:42 55.50021 12.28287 4054 ft 264 kts 161°
2026-04-24 14:42 55.48598 12.30133 3902 ft 251 kts 121°
2026-04-24 14:43 55.47955 12.32878 3782 ft 236 kts 98°
2026-04-24 14:43 55.47540 12.35631 3650 ft 228 kts 98°
2026-04-24 14:43 55.47150 12.38267 3525 ft 216 kts 94°
2026-04-24 14:43 55.47205 12.40775 3269 ft 199 kts 64°
2026-04-24 14:44 55.47825 12.42776 3035 ft 179 kts 40°
2026-04-24 14:44 55.48716 12.44196 2804 ft 170 kts 32°
2026-04-24 14:44 55.49585 12.45535 2581 ft 161 kts 32°
2026-04-24 14:44 55.50388 12.46771 2372 ft 145 kts 32°
2026-04-24 14:45 55.51127 12.47906 2177 ft 138 kts 31°
2026-04-24 14:45 55.51841 12.48999 1999 ft 133 kts 32°
2026-04-24 14:45 55.52513 12.50033 1827 ft 126 kts 32°
2026-04-24 14:45 55.53165 12.51033 1657 ft 123 kts 32°
2026-04-24 14:46 55.53815 12.52030 1482 ft 124 kts 32°
2026-04-24 14:46 55.54466 12.53031 1312 ft 124 kts 31°
2026-04-24 14:46 55.55114 12.54028 1144 ft 123 kts 31°
2026-04-24 14:46 55.55759 12.55020 974 ft 123 kts 32°
2026-04-24 14:47 55.56401 12.56006 802 ft 125 kts 33°
2026-04-24 14:47 55.57057 12.57014 651 ft 125 kts 34°
2026-04-24 14:47 55.57704 12.58012 446 ft 123 kts 33°
2026-04-24 14:47 55.58341 12.58994 277 ft 121 kts 34°
2026-04-24 14:48 55.58962 12.59956 126 ft 118 kts 36°
2026-04-24 14:48 55.59566 12.60877 25 ft 103 kts 39°
2026-04-24 14:48 55.59984 12.61528 23 ft 55 kts 41°
2026-04-24 14:48 55.60202 12.61864 23 ft 41 kts 41°
2026-04-24 14:49 55.60426 12.62198 22 ft 32 kts 36°
2026-04-24 14:49 55.60603 12.62334 24 ft 25 kts 13°
2026-04-24 14:49 55.60780 12.62403 24 ft 26 kts 23°
2026-04-24 14:49 55.60899 12.62566 24 ft 20 kts 40°
2026-04-24 14:50 55.61013 12.62738 24 ft 23 kts 40°
2026-04-24 14:50 55.61115 12.62899 24 ft 20 kts 41°
2026-04-24 14:50 55.61230 12.63077 24 ft 24 kts 41°
2026-04-24 14:50 55.61360 12.63277 24 ft 27 kts 41°
2026-04-24 14:51 55.61508 12.63506 24 ft 30 kts 41°
2026-04-24 14:51 55.61625 12.63688 24 ft 17 kts 41°
2026-04-24 14:51 55.61712 12.63820 24 ft 18 kts 40°
2026-04-24 14:51 55.61809 12.63973 24 ft 17 kts 40°
2026-04-24 14:52 55.61916 12.64105 24 ft 20 kts 25°
2026-04-24 14:52 55.62054 12.64221 24 ft 21 kts 25°
2026-04-24 14:52 55.62129 12.64284 26 ft 9 kts 26°
2026-04-24 14:52 55.62191 12.64337 20 ft 13 kts 25°
2026-04-24 14:53 55.62283 12.64397 20 ft 14 kts 15°
2026-04-24 14:53 55.62367 12.64437 23 ft 8 kts 15°
2026-04-24 14:53 55.62388 12.64448 23 ft 0 kts 16°
2026-04-24 14:53 55.62402 12.64451 24 ft 4 kts
2026-04-24 14:54 55.62435 12.64418 24 ft 8 kts 313°
2026-04-24 14:54 55.62481 12.64318 24 ft 13 kts 310°
2026-04-24 14:54 55.62546 12.64198 24 ft 15 kts 346°
2026-04-24 14:54 55.62629 12.64125 25 ft 15 kts 303°
2026-04-24 14:55 55.62671 12.64010 25 ft 18 kts 303°
2026-04-24 14:55 55.62805 12.63997 26 ft 13 kts 43°
2026-04-24 14:55 55.62803 12.64108 24 ft 10 kts 124°
2026-04-24 14:55 55.62784 12.64159 24 ft 0 kts 122°